Home   Weather   Traralgon   Past weeks

Flag for Australia Past Weather in Traralgon, Victoria, Australia — Yesterday and Last 2 Weeks

Now
61 °F

Cool.


Feels Like: 61 °F
Forecast: 58 / 74 °F
Wind: 1 mph from Southeast

Location: Latrobe Valley Airport

Current Time: Feb 25, 2017 at 11:46:17 am

Latest Report: Feb 25, 2017 at 10:00 am


Visibility: N/A

Pressure: 30.27 "Hg

Humidity: 68%

Dew Point: 51 °F

Location of TraralgonLocation

Past Weather in Traralgon — Graph

°F

Traralgon Temperature Yesterday

Maximum temperature yesterday: 69 °F (at 3:00 pm)
Minimum temperature yesterday: 59 °F (at 6:00 am)
Average temperature yesterday: 63 °F

High & Low Weather Summary for the Past Weeks

 TemperatureHumidityPressure
High89 °F (Feb 10, 3:00 pm)95% (Feb 15, 7:00 am)30.28 "Hg (Feb 15, 7:00 am)
Low47 °F (Feb 15, 7:00 am)20% (Feb 15, 4:00 pm)29.64 "Hg (Feb 12, 4:00 am)
Average63 °F69%29.90 "Hg
* Reported Feb 10 10:00 am — Feb 25 10:00 am, Traralgon, Weather by CustomWeather, © 2017

Note: Actual official high and low records may vary slightly from our data, if they occured in-between our weather recording intervals... More about our weather records

Advertising

Traralgon Weather History for the Previous 24 Hours

Scroll right to see more
 ConditionsComfort  
Time TempWeatherWind HumidityBarometerVisibility
10:00 am
Sat, Feb 25
61 °FCool.1 mph68%30.27 "HgN/A
9:00 am54 °FPartly sunny.1 mph92%30.27 "HgN/A
7:00 am49 °FCool.1 mph92%30.25 "HgN/A
6:00 am49 °FOvercast.3 mph93%30.24 "HgN/A
4:00 am48 °FCool.No wind92%30.24 "HgN/A
3:00 am49 °FCool.3 mph91%30.24 "HgN/A
1:00 am49 °FCool.3 mph87%30.26 "HgN/A
12:00 am55 °FPassing clouds.5 mph80%30.27 "HgN/A
10:00 pm
Fri, Feb 24
60 °FCool.10 mph68%30.28 "HgN/A
9:00 pm62 °FOvercast.10 mph59%30.27 "HgN/A
7:00 pm63 °FMild.13 mph55%30.25 "HgN/A
6:00 pm64 °FOvercast.16 mph54%30.24 "HgN/A
4:00 pm67 °FMild.17 mph48%30.23 "HgN/A
3:00 pm69 °FScattered clouds.17 mph45%30.23 "HgN/A
1:00 pm67 °FMild.17 mph52%30.24 "HgN/A
12:00 pm65 °FOvercast.15 mph59%30.24 "HgN/A
Weather by CustomWeather, © 2017

See weather overviewHow to use our weather pages